Location: Stillwell
(40.4602°N, 82.0928°W)
Time: 03:47:17
(UTC-04:00)

Daily predictions for brighter satellites

Satellite Brightness Start Highest point End
(mag) Time Altitude Azimuth Time Altitude Azimuth Time Altitude Azimuth
CZ-4B R/B 3.8 00:10:33 16° ENE 00:10:33 16° ENE 00:12:14 10° NNE
Cosmos 1125 Rocket 3.4 00:10:01 62° SSE 00:10:47 73° ESE 00:16:06 10° NNE
Cosmos 1862 Rocket 4.3 00:07:35 10° NNW 00:11:41 42° W 00:12:14 40° WSW
Cosmos 1048 Rocket 4.3 00:07:29 10° N 00:12:46 57° ENE 00:13:46 49° ESE
SeaSat 1 2.8 00:12:26 47° E 00:13:23 56° ENE 00:18:13 10° NNW
Cosmos 1980 4.2 00:16:56 10° NW 00:22:20 48° WSW 00:23:22 43° SW
Lacrosse 4 Rocket 1.8 00:20:10 10° NNW 00:24:32 57° ENE 00:24:39 57° ENE
NOSS 2-3 (D) 4.1 00:30:30 55° E 00:30:30 55° E 00:35:28 10° NE
ASTEX 1 4.2 00:26:52 10° NNE 00:31:11 36° E 00:31:11 36° E
Cosmos 2237 Rocket 2.9 00:29:51 10° NW 00:35:09 41° WSW 00:36:00 38° SW
Cosmos 1869 Rocket 3.7 00:39:10 69° W 00:39:10 69° W 00:43:37 10° N
Cosmos 372 Rocket 3.8 00:40:24 76° SE 00:40:40 78° ESE 00:45:55 10° NNE
Cosmos 1733 Rocket 4.4 00:41:41 30° ENE 00:41:41 30° ENE 00:44:57 10° NNE
Cosmos 158 Rocket 4.3 00:36:18 10° N 00:41:28 52° ENE 00:42:06 49° E
Meteor 2-3 Rocket 3.7 00:41:29 61° SE 00:42:07 66° E 00:47:48 10° NNE
Landsat 5 4.4 00:42:32 42° ENE 00:42:33 42° ENE 00:46:50 10° N
Cosmos 1892 4.4 00:44:30 26° NE 00:44:30 26° NE 00:46:40 10° NNE
CZ-4C R/B 4.2 00:44:58 40° N 00:44:58 40° N 00:47:26 10° N
ERBS 4.3 00:45:24 26° WNW 00:46:01 28° NW 00:49:05 10° NNE
ALOS 2 2.8 00:48:22 63° NE 00:48:22 63° NE 00:52:26 10° N
COSMOS 2455 2.7 00:42:45 10° NNW 00:48:46 72° WSW 00:49:34 63° SSW
H-2A R/B 2.9 00:46:19 10° NNE 00:49:51 57° NE 00:49:51 57° NE
ATLAS 2AS CENTAUR R/B 3.6 00:50:45 12° WSW 00:57:45 53° NW 01:05:40 10° NNE
In-Cosmos 22 Rocket 4.1 00:57:27 67° SSW 00:58:13 82° W 01:04:01 10° N
Okean 1-7 4.0 01:05:30 10° NNW 01:08:58 38° WNW 01:08:58 38° WNW
Helios 1A Rocket 3.7 01:08:40 10° NNE 01:11:55 48° NE 01:11:55 48° NE
Cosmos 2227 Rocket 4.3 01:09:42 10° W 01:13:52 21° NW 01:18:04 10° N
Cosmos 2074 Rocket 4.2 01:13:11 52° SW 01:14:33 66° W 01:20:50 10° N
Cosmos 1610 Rocket 4.3 01:13:49 67° S 01:14:45 86° E 01:20:54 10° N
Cosmos 1782 3.9 01:10:59 10° N 01:14:00 39° NE 01:14:00 39° NE
Nadezhda 3 Rocket 4.2 01:09:23 10° N 01:15:31 59° E 01:16:43 51° ESE
ATLAS 3B R/B 2.8 01:09:54 10° NW 01:16:35 52° WSW 01:17:16 50° SW
Cosmos 2263 Rocket 3.7 01:19:12 23° E 01:19:12 23° E 01:23:18 10° NE
Cosmos 2251 Rocket 3.4 01:13:46 10° NNW 01:19:08 85° ENE 01:19:20 82° SE
Cosmos 1340 Rocket 3.6 01:21:31 48° N 01:21:31 48° N 01:24:25 10° N
Cosmos 44 Rocket 3.7 01:21:06 54° W 01:21:51 61° NW 01:27:03 10° NNE
Geosat 3.9 01:17:12 10° NNE 01:22:08 75° E 01:22:08 75° E
CZ-2C R/B 4.3 01:21:36 33° ESE 01:23:09 39° ENE 01:28:19 10° N
USA 238 DEB 3.7 01:16:48 10° NNW 01:23:53 86° NE 01:25:50 52° SE
USA 238 3.7 01:16:54 10° NNW 01:23:59 85° NE 01:25:58 51° SE
Cosmos 2333 Rocket 4.3 01:22:18 10° WNW 01:24:46 13° W 01:25:14 13° WSW
GEOS 3 Rocket 3.9 01:27:38 53° WSW 01:27:38 53° WSW 01:32:21 10° NW
SL-16 R/B 3.1 01:22:44 10° NW 01:27:44 34° WSW 01:27:44 34° WSW
Cosmos 2227 4.1 01:28:50 66° WSW 01:29:32 75° WNW 01:35:14 10° NNE
Cosmos 1674 Rocket 3.8 01:25:59 10° N 01:29:52 67° N 01:29:52 67° N
Cosmos 1607 4.0 01:30:36 10° NNW 01:36:45 71° NE 01:38:19 51° ESE
Cosmos 921 Rocket 3.6 01:38:18 52° NE 01:38:18 52° NE 01:41:35 10° NNE
CZ-4C R/B 3.2 01:32:04 10° NNW 01:39:04 60° NE 01:43:31 26° ESE
Cosmos 1975 Rocket 4.3 01:36:23 10° NNE 01:40:19 32° ENE 01:40:19 32° ENE
Meteor 2-10 Rocket 3.8 01:34:52 10° NNW 01:40:22 61° W 01:40:45 60° WSW
Cosmos 2084 Rocket 4.3 01:41:26 43° N 01:41:26 43° N 01:44:17 10° NNE
Cosmos 2297 Rocket 4.5 01:37:24 10° W 01:41:14 18° NW 01:45:03 10° N
CZ-4B R/B 3.8 01:44:19 19° NW 01:44:19 19° NW 01:45:43 10° NW
Cosmos 2154 Rocket 3.9 01:41:41 63° SSW 01:42:47 81° W 01:49:06 10° N
Meteor 1-27 Rocket 3.8 01:38:06 10° N 01:43:57 68° E 01:44:47 60° SE
CZ-2C R/B 2.4 01:40:48 10° NNE 01:46:03 85° ESE 01:46:13 83° SSE
Cosmos 1908 Rocket 3.9 01:47:05 61° NNE 01:47:05 61° NNE 01:50:46 10° N
Cosmos 494 Rocket 3.9 01:44:45 10° NNW 01:49:59 75° WSW 01:49:59 75° WSW
SeaSat 1 4.4 01:52:14 18° W 01:52:14 18° W 01:54:37 10° WNW
Cosmos 1943 3.5 01:46:19 10° NNW 01:51:58 61° ENE 01:53:14 49° ESE
Cosmos 1862 4.0 01:58:08 52° NNE 01:58:08 52° NNE 02:01:16 10° N
NOSS 3-2 (C) 4.5 01:50:09 10° NNW 01:57:31 58° NE 02:03:50 17° SE
Cosmos 1603 4.1 01:56:15 10° NW 02:01:33 47° WSW 02:01:33 47° WSW
Meteor 2-6 Rocket 4.4 01:56:07 10° NNW 02:01:52 61° W 02:02:26 58° WSW
Cosmos 1606 3.7 01:58:40 10° N 02:01:27 45° NNW 02:01:27 45° NNW
Lacrosse 4 Rocket 4.1 02:00:29 10° WNW 02:00:59 11° W 02:00:59 11° W
FALCON 9 R/B 4.3 01:58:46 10° W 02:03:14 20° WSW 02:03:14 20° WSW
Cosmos 1238 Rocket 3.9 02:07:35 10° NNW 02:10:17 36° NW 02:10:17 36° NW
Sich 1 Rocket 4.4 02:12:10 41° WNW 02:12:10 41° WNW 02:16:12 10° N
Cosmos 2341 Rocket 4.3 02:13:16 49° WSW 02:14:37 58° W 02:20:55 10° N
NOSS 3-4 (A) 3.4 02:17:54 59° SSW 02:19:16 84° ESE 02:25:52 10° NE
NOSS 3-4 (C) 3.4 02:18:01 59° SSW 02:19:21 84° SE 02:25:57 10° NE
SL-08 R/B 4.5 02:18:53 56° SSE 02:20:13 75° E 02:26:31 10° N
Okean 3 3.7 02:16:39 10° N 02:20:24 64° NW 02:20:24 64° NW
NOSS 3-2 (A) 3.9 02:13:43 10° NW 02:21:17 88° ENE 02:25:29 32° SE
Cosmos 1959 Rocket 4.4 02:24:23 57° S 02:25:46 86° E 02:32:02 10° N
SL-8 Rocket 4.0 02:30:12 55° SW 02:31:36 72° W 02:37:57 10° N
Cosmos 1378 Rocket 4.5 02:28:14 10° NNW 02:31:39 37° WNW 02:31:39 37° WNW
Cosmos 1371 Rocket 3.9 02:37:07 66° SSE 02:37:49 78° ESE 02:43:12 10° NNE
Cosmos 2056 Rocket 3.7 02:38:19 53° SE 02:39:03 58° ESE 02:44:11 10° NNE
BREEZE-M DEB (TANK) 3.8 02:27:19 10° WNW 02:39:06 80° SSW 02:40:42 42° SE
Cosmos 1408 3.9 02:39:55 33° NW 02:39:55 33° NW 02:42:40 10° N
Cosmos 2218 Rocket 4.0 02:37:59 54° SSW 02:39:28 76° W 02:45:50 10° N
Cosmos 1825 3.6 02:45:14 29° NW 02:45:14 29° NW 02:48:00 10° NNW
ERS-2 4.0 02:42:00 10° NE 02:44:57 22° E 02:44:57 22° E
Cosmos 1812 4.3 02:45:18 10° NNE 02:48:44 29° ENE 02:49:35 26° E
Okean 2 Rocket 3.8 02:51:20 42° W 02:51:22 42° WNW 02:55:41 10° N
Cosmos 2366 rocket 4.0 02:53:00 49° SW 02:54:34 66° W 03:00:44 10° N
Meteor 2-8 Rocket 4.3 02:52:31 10° N 02:58:37 82° W 03:00:30 47° S
Cosmos 1844 Rocket 3.8 02:58:18 28° SE 03:00:06 34° ESE 03:05:09 10° NE
Cosmos 2263 Rocket 2.7 03:00:53 39° WSW 03:02:30 50° WNW 03:08:02 10° NNE
Okean 1 4.5 02:58:58 10° N 03:02:42 37° ENE 03:03:47 31° ESE
CZ-2C R/B 4.3 03:02:40 30° WSW 03:03:00 30° W 03:07:56 10° NW
SL-27 R/B 4.0 02:59:57 10° N 03:03:20 33° ENE 03:04:27 27° ESE
Cosmos 909 Rocket 4.1 03:01:27 45° SSW 03:03:39 90° WNW 03:11:00 10° NNE
RESURS DK-1 2.9 03:12:15 45° WNW 03:12:35 46° WNW 03:16:37 10° NNE
SL-24 DEB 4.4 03:09:54 10° N 03:14:32 68° E 03:15:46 46° SSE
Abrixas rocket 2.9 03:16:30 51° NNW 03:16:30 51° NNW 03:19:46 10° NE
Cosmos 1727 Rocket 4.2 03:10:48 10° NNW 03:16:49 52° W 03:18:33 40° SW
COSMOS 2406 3.3 03:12:49 10° NNW 03:18:38 78° ENE 03:22:28 22° SSE
Cosmos 1867 3.8 03:14:12 10° NW 03:19:25 47° WSW 03:19:56 46° SW
Cosmos 1300 Rocket 3.7 03:18:48 50° SSE 03:19:42 66° E 03:24:02 10° NNE
Cosmos 2278 Rocket 3.8 03:18:50 16° SE 03:21:50 25° ESE 03:26:21 10° NE
Meteor 1-25 Rocket 4.2 03:20:05 44° SSW 03:22:01 83° W 03:27:50 10° N
IRS-P3 4.1 03:17:19 10° N 03:22:41 79° WNW 03:24:25 45° SSW
Cosmos 1624 Rocket 4.4 03:22:12 40° WSW 03:23:36 51° WNW 03:28:43 10° N
USA 161 3.7 03:23:19 19° E 03:24:09 22° ENE 03:26:29 10° NNE
Iridium 4 Rocket 3.6 03:20:49 10° NNW 03:25:23 53° W 03:26:21 45° SW
CZ-4C R/B 3.6 03:21:09 10° NW 03:27:27 32° WSW 03:28:37 31° SW
Cosmos 1242 Rocket 3.8 03:24:39 10° NNW 03:26:54 28° WNW 03:26:54 28° WNW
Cosmos 1536 Rocket 3.9 03:25:54 10° NNW 03:30:06 47° W 03:30:27 45° WSW
USA 234 3.1 03:23:58 10° SE 03:30:30 77° SW 03:37:04 10° NW
Resurs 1-4 Rocket 3.7 03:28:17 10° NE 03:32:47 27° E 03:36:39 13° SSE
SL-08 R/B 3.3 03:32:29 41° S 03:34:13 74° WSW 03:39:08 10° NNW
ATLAS 2A CENTAUR R/B 3.8 03:38:20 29° SSW 03:40:38 33° SSE 04:01:57 10° ESE
CENTAUR R/B 3.3 03:35:40 10° NNW 03:43:31 74° NE 03:51:49 10° SE
Cosmos 1452 Rocket 3.4 03:42:56 38° SSW 03:45:01 85° WNW 03:50:19 10° NNE
ARIANE 5 R/B 3.2 03:40:24 10° NNE 03:45:13 47° E 03:48:13 22° SSE
Cosmos 1934 Rocket 4.0 03:42:14 27° S 03:45:53 79° E 03:52:04 10° N
Cosmos 1633 3.9 03:48:47 21° SE 03:50:33 34° E 03:53:51 10° NNE
AQUA 4.0 03:47:12 10° N 03:51:52 56° WNW 03:53:38 35° SW
ADEOS 3.5 03:46:52 10° NNE 03:52:08 87° WNW 03:54:43 31° SSW
CBERS-1 4.3 03:49:10 10° N 03:54:12 56° WNW 03:56:24 32° SW
Okean 1-7 Rocket 3.7 03:51:33 10° NNW 03:56:05 63° W 03:57:55 34° SSW
Cosmos 1420 Rocket 4.3 03:53:20 26° S 03:56:16 63° ESE 04:01:30 10° NNE
Cosmos 1536 3.3 03:57:35 26° SSE 03:59:41 58° E 04:03:42 10° NNE
Okean 1 Rocket 3.5 03:59:23 35° SW 04:00:48 48° W 04:05:09 10° N
COSMOS 2487 3.5 03:57:49 10° N 04:01:20 46° ENE 04:04:49 10° SE
Cosmos 489 Rocket 4.4 03:55:29 10° NNW 04:01:44 74° WSW 04:07:26 12° S
SME Rocket 4.0 04:00:10 10° SE 04:03:43 44° ENE 04:07:38 10° N
UNKNOWN OBJECT B 4.4 04:01:36 10° NNE 04:05:18 32° E 04:08:33 12° SSE
Cosmos 1461 3.6 04:04:34 26° S 04:06:59 54° ESE 04:11:31 10° NE
NPP 4.5 04:02:43 10° N 04:07:38 37° WNW 04:10:15 23° WSW
SL-16 R/B 2.7 04:03:14 10° SSE 04:09:28 78° ENE 04:15:42 10° NNW
Okean O Rocket 3.7 04:06:28 10° NE 04:09:49 21° E 04:13:08 10° SE
Gbstr 26 Del rocket 2.7 04:08:34 32° WSW 04:10:18 74° NW 04:14:03 10° NE
Meteor 2-15 Rocket 4.4 04:09:19 10° N 04:15:31 89° E 04:21:41 10° S
Meteor 1-19 Rocket 4.3 04:09:46 10° N 04:15:36 84° W 04:21:24 10° S
Cosmos 1140 Rocket 3.4 04:11:14 10° NNW 04:16:23 85° WSW 04:21:30 10° SSE
NOSS 2-2 (D) 3.5 04:16:07 29° SW 04:18:12 86° NW 04:22:57 10° NNE
ERS-2 3.7 04:15:41 10° NNW 04:18:40 23° WNW 04:19:48 20° W
GP-B 4.2 04:15:22 10° NNW 04:19:11 28° W 04:20:46 23° WSW
Cosmos 1605 Rocket 3.9 04:15:16 19° S 04:19:49 80° W 04:26:07 10° N
Cosmos 1821 Rocket 4.5 04:17:26 23° SW 04:21:13 47° WNW 04:27:22 10° N
Cosmos 2123 Rocket 4.1 04:18:01 10° NNW 04:24:17 64° W 04:29:54 13° S
Cosmos 1812 4.4 04:21:47 10° NW 04:24:23 17° W 04:24:45 17° W
EO 1 Del DPAF 3.2 04:21:45 14° S 04:25:01 82° WSW 04:28:56 10° NNW
Cosmos 1455 Rocket 3.6 04:21:54 13° S 04:25:49 58° E 04:30:13 10° NNE
Cosmos 1850 Rocket 4.0 04:22:49 10° NNW 04:28:05 88° WSW 04:33:21 10° SSE
Cosmos 1025 Rocket 3.1 04:24:05 10° NNW 04:28:18 58° W 04:31:24 18° S
CZ-2D R/B 2.2 04:22:58 10° NNE 04:28:26 87° ESE 04:33:03 15° SSW
Meteor 1-11 Rocket 4.1 04:25:35 21° SSW 04:29:34 56° WNW 04:35:27 10° N
Cosmos 1741 Rocket 4.0 04:24:34 10° NNW 04:29:53 88° WSW 04:35:07 10° SSE
NOSS 2-2 (C) 3.8 04:30:09 23° SW 04:32:39 62° NW 04:37:23 10° NNE
SL-27 R/B 4.5 04:36:17 10° WNW 04:38:09 14° W 04:38:09 14° W
Cosmos 1400 Rocket 2.8 04:40:17 19° SSW 04:42:55 60° W 04:46:50 10° N
Cosmos 1844 Rocket 3.7 04:39:58 16° WSW 04:43:56 34° WNW 04:49:05 10° N
MOS 1-B 4.4 04:39:48 10° NNE 04:45:38 79° WNW 04:51:10 11° SSW
APEX 4.0 04:46:28 11° S 04:48:55 34° ESE 04:51:53 10° NE
IRS-1D 4.0 04:46:15 10° N 04:51:04 45° WNW 04:55:04 14° SW
Cosmos 1544 Rocket 3.9 04:47:57 15° SSW 04:51:22 51° W 04:55:41 10° N
Cosmos 1844 4.5 04:47:31 15° WSW 04:51:49 40° WNW 04:57:13 10° N
Meteor 1-23 Rocket 4.4 04:48:15 10° NNW 04:53:51 56° W 04:59:20 10° S
USA 161 3.7 04:54:31 12° W 04:54:35 12° W 04:55:44 10° WNW
Cosmos 2173 Rocket 4.1 04:50:42 10° S 04:56:47 79° E 05:02:57 10° N
USA 129 1.6 04:54:47 10° SSE 04:56:55 85° ENE 04:58:59 10° N
Cosmos 1802 Rocket 4.1 04:57:30 10° S 05:03:38 78° E 05:09:46 10° N
Cosmos 2297 3.7 04:58:41 10° SSW 05:04:20 88° WNW 05:10:04 10° NNE
Centaur AC-125 4.4 05:03:45 10° S 05:05:06 12° SSE 05:06:57 10° SE
BREEZE-M DEB (TANK) 4.4 05:01:42 10° WNW 05:05:32 21° N 05:07:38 10° NE
Cosmos 2278 Rocket 2.8 05:00:42 13° SW 05:05:35 45° WNW 05:11:02 10° NNE
CZ-4B R/B 3.7 05:03:48 10° NNE 05:08:18 60° E 05:12:42 10° S
ATLAS 5 CENTAUR R/B 2.4 05:03:12 10° NW 05:09:13 72° WSW 05:15:37 10° SSE
Cosmos 1315 Rocket 3.2 05:05:42 10° SSW 05:09:39 50° WNW 05:13:36 10° N
Resurs 1-4 Rocket 2.9 05:07:49 10° N 05:12:39 37° WNW 05:17:28 10° SW
Cosmos 1459 Rocket 4.1 05:06:27 10° SSW 05:12:48 76° W 05:19:08 10° N
USA 234 4.4 05:09:57 10° SSW 05:14:08 18° WSW 05:18:21 10° W
IRS-1C Rocket 4.1 05:09:24 10° N 05:14:40 71° WNW 05:19:53 10° SSW
Cosmos 2100 Rocket 4.1 05:09:07 10° SSW 05:15:18 69° W 05:21:38 10° N
Meteor 1-12 Rocket 4.4 05:09:39 10° S 05:15:33 88° W 05:21:22 10° N
MOZ.5/SAFIR/RUBIN 5/SL-8 3.8 05:16:58 10° S 05:21:45 79° WSW 05:26:34 10° NNW
NOSS 5 (C) 4.2 05:18:31 10° SW 05:21:52 83° NW 05:24:58 10° NNE
Cosmos 1174 3.3 05:18:16 10° NNW 05:21:56 87° NE 05:25:02 10° SSE
Okean 2 4.4 05:18:28 10° NNW 05:21:57 27° W 05:25:26 10° SSW
CZ-4B R/B 3.3 05:16:28 10° NNE 05:22:10 85° WNW 05:27:50 10° SSW
Cosmos 1346 Rocket 3.2 05:18:29 10° N 05:22:33 68° E 05:26:32 10° SSE
ARIANE 5 R/B 4.0 05:20:23 10° NNW 05:24:00 20° WNW 05:27:37 10° WSW
Cosmos 2082 Rocket 2.2 05:18:53 10° NNW 05:24:38 82° WSW 05:30:19 10° SSE
Cosmos 1975 2.8 05:20:55 10° SSW 05:24:54 72° W 05:28:53 10° N
Cosmos 1110 Rocket 4.2 05:25:41 10° SSW 05:30:56 60° WNW 05:36:11 10° NNE
CENTAUR R/B 3.9 05:27:22 10° NW 05:33:45 27° WSW 05:40:19 10° SSW
